Flag for U.S.A. Weather past 2 weeks in Charleston, West Virginia, U.S.A.

Now
41 °F

Fog.


Feels Like: 41 °F
Forecast: 40 / 63 °F
Wind: No wind

Location: Yeager Airport

Current Time: Oct 24, 2014 at 8:27:49 AM

Latest Report: Oct 24, 2014 at 7:54 AM


Visibility: 0 mi

Pressure: 30.13 "Hg

Humidity: 96%

Dew point: 40 °F

Location of CharlestonLocation

Historic Weather in Charleston — Graph

°F

Charleston temperature yesterday

Maximum temperature yesterday: 56 °F (at 2:54 PM)
Minimum temperature yesterday: 40 °F (at 11:54 PM)
Average temperature yesterday: 49 °F

Past Weeks' High & Low Weather Summary

 TemperatureHumidityPressure
High81 °F (Oct 13, 2:54 PM)100% (Oct 11, 9:04 PM)30.22 "Hg (Oct 11, 9:04 PM)
Low35 °F (Oct 20, 7:54 AM)44% (Oct 14, 1:54 PM)29.63 "Hg (Oct 14, 4:54 PM)
Average56 °F80%29.99 "Hg
* Reported Oct 9 6:54 AM — Oct 24 6:54 AM, Charleston, Weather by CustomWeather, © 2014

Note: Actual official high and low records may vary slightly from our data, if they occured in-between our weather recording intervals... More about our weather records

Advertising

Charleston weather history for previous 24 hours

 ConditionsComfort  
Time TempWeatherWind HumidityBarometerVisibility
6:54 AM
Oct 24
41 °FFog.No wind96%30.13 "Hg1 mi
5:54 AM42 °FFog.No wind96%30.12 "Hg1 mi
4:54 AM41 °FFog.No wind96%30.11 "Hg1 mi
3:54 AM42 °FFog.No wind100%30.12 "Hg1 mi
2:54 AM41 °FFog.No wind96%30.11 "Hg1 mi
1:54 AM40 °FFog.No wind97%30.11 "Hg1 mi
12:54 AM40 °FFog.No wind97%30.11 "Hg4 mi
11:54 PM
Oct 23
40 °FFog.No wind97%30.13 "Hg6 mi
10:54 PM43 °FClear.No wind93%30.14 "Hg7 mi
9:54 PM44 °FClear.No wind93%30.13 "Hg10 mi
8:54 PM47 °FClear.No wind86%30.12 "Hg10 mi
7:54 PM48 °FPassing clouds.3 mph86%30.13 "Hg10 mi
6:54 PM51 °FScattered clouds.6 mph77%30.13 "Hg10 mi
5:54 PM56 °FScattered clouds.No wind60%30.11 "Hg10 mi
4:54 PM56 °FPartly sunny.No wind60%30.11 "Hg10 mi
3:54 PM56 °FPartly sunny.No wind62%30.12 "Hg10 mi
2:54 PM56 °FPartly sunny.7 mph62%30.14 "Hg10 mi
1:54 PM55 °FPartly sunny.8 mph62%30.16 "Hg10 mi
12:54 PM55 °FPartly sunny.3 mph64%30.19 "Hg10 mi
11:54 AM53 °FBroken clouds.3 mph72%30.21 "Hg10 mi
10:54 AM49 °FMostly cloudy.6 mph80%30.22 "Hg10 mi
9:54 AM48 °FMore clouds than sun.3 mph80%30.22 "Hg10 mi
8:54 AM47 °FMore clouds than sun.3 mph83%30.22 "Hg10 mi
Weather by CustomWeather, © 2014

See weather overviewHow to use our weather pages